I2HLY-3 Weather Reports


time (UTC)temp
C
wind
direction
speed
KPH
gust
KPH
rain 1hr
cm
rain 24hr
cm
rain mn
cm
humidity
%
barometer
mb
20260506224716 11 19 1.6 1.6 0.00 8.00 0.00 92 1009.2
20260506223222 11 19 1.6 4.8 0.00 8.00 0.00 91 1009.1
20260506221724 11 321 1.6 6.4 0.00 8.00 0.00 91 1009.2
20260506220225 11 325 4.8 4.8 0.00 8.00 2.03 92 1009.1
20260506214729 11 336 4.8 6.4 0.00 8.00 2.03 92 1009.1
20260506213230 11 338 4.8 6.4 0.00 8.00 2.03 93 1009.0
20260506211728 11 340 3.2 4.8 0.00 8.00 2.03 92 1009.0
20260506210233 11 338 1.6 3.2 0.00 8.00 2.03 91 1009.0
20260506204734 12 338 1.6 4.8 0.00 8.00 2.03 89 1008.8
20260506203216 11 338 1.6 4.8 0.10 8.00 2.03 90 1008.8
20260506201722 12 17 0.0 6.4 0.10 8.00 2.03 90 1008.7
20260506200224 12 332 3.2 6.4 0.10 8.00 2.03 89 1008.6
20260506194724 12 32 3.2 4.8 0.10 8.00 2.03 88 1008.5
20260506193219 12 83 3.2 12.9 0.00 7.90 2.01 85 1008.1
20260506191720 12 78 3.2 14.5 0.00 7.90 2.01 85 1008.0
20260506190221 12 317 8.0 22.5 0.00 7.90 2.01 85 1007.8
20260506184721 12 322 9.7 24.1 0.00 7.90 2.01 87 1007.9
20260506183227 12 229 6.4 12.9 0.00 7.90 2.01 92 1007.9
20260506181729 12 350 1.6 4.8 0.00 7.90 2.01 92 1007.0
20260506180229 12 351 4.8 4.8 0.00 7.90 2.01 92 1006.7
20260506174735 12 355 3.2 4.8 0.00 7.90 2.01 92 1006.7
20260506173235 12 360 3.2 4.8 0.00 7.90 2.01 91 1006.4
20260506171717 12 5 3.2 6.4 0.00 7.90 2.01 91 1006.3
20260506170223 13 298 3.2 4.8 0.00 7.90 2.01 90 1006.1
20260506164725 13 295 1.6 4.8 0.00 7.90 2.01 90 1006.2
20260506163226 13 331 3.2 14.5 0.41 7.90 2.01 89 1006.0
20260506161732 13 32 8.0 16.1 4.09 7.90 2.01 91 1005.7
20260506160232 12 38 6.4 16.1 6.10 7.90 2.01 91 1005.4
20260506154734 12 47 8.0 14.5 7.49 7.90 2.01 92 1005.5
20260506153218 11 350 8.0 25.7 7.11 7.49 1.91 90 1005.3
20260506151719 13 340 12.9 22.5 3.20 3.61 0.91 86 1005.7
20260506150220 16 342 11.3 27.4 1.30 1.70 0.43 83 1005.3
20260506144726 17 104 8.0 24.1 0.00 0.41 0.10 82 1005.0
20260506143227 18 147 12.9 29.0 0.30 0.41 0.10 79 1004.8
20260506141727 17 115 11.3 17.7 0.30 0.41 0.10 81 1005.0
20260506140249 18 92 11.3 30.6 0.30 0.41 0.10 80 1005.3
20260506134731 17 82 14.5 27.4 0.30 0.41 0.10 82 1005.4
20260506133231 17 41 14.5 35.4 0.00 0.10 0.03 82 1005.7
20260506131731 17 65 14.5 30.6 0.00 0.10 0.03 82 1005.8
20260506130216 17 83 9.7 24.1 0.00 0.10 0.03 85 1006.0
20260506124718 17 101 12.9 20.9 0.00 0.10 0.03 86 1006.3
20260506123217 16 67 11.3 29.0 0.00 0.10 0.03 88 1006.2
20260506121719 15 115 14.5 33.8 0.00 0.10 0.03 91 1006.3
20260506120225 15 18 11.3 20.9 0.00 0.20 0.03 91 1006.2
20260506114724 15 140 12.9 33.8 0.00 0.20 0.03 88 1006.5
20260506113224 16 74 19.3 33.8 0.00 0.20 0.03 86 1006.6
20260506111729 15 92 9.7 19.3 0.00 0.20 0.03 89 1006.6
20260506110229 15 97 14.5 32.2 0.00 0.20 0.03 88 1006.5
20260506104728 15 77 16.1 30.6 0.00 0.20 0.03 88 1006.6
20260506103234 16 53 12.9 29.0 0.00 0.20 0.03 88 1006.8
20260506101734 15 80 12.9 25.7 0.10 0.20 0.03 89 1006.9
20260506100215 15 93 9.7 27.4 0.10 0.20 0.03 91 1007.0
20260506094721 14 104 12.9 19.3 0.10 0.20 0.03 93 1007.1
20260506093221 13 130 4.8 24.1 0.10 0.20 0.03 93 1007.0
20260506091722 13 63 8.0 19.3 0.00 0.10 0.00 94 1006.8
20260506090226 13 120 4.8 12.9 0.00 0.10 0.00 94 1007.1
20260506084728 13 119 6.4 20.9 0.00 0.10 0.00 93 1007.1
20260506083228 13 95 11.3 20.9 0.00 0.10 0.00 92 1007.0
20260506081730 13 110 11.3 19.3 0.00 0.10 0.00 91 1007.0
20260506080216 13 51 4.8 22.5 0.00 0.20 0.00 93 1006.6
20260506073216 13 76 12.9 25.7 0.00 0.20 0.00 93 1006.9
20260506071721 13 56 9.7 22.5 0.00 0.20 0.00 94 1006.9
20260506070224 13 86 9.7 22.5 0.00 0.20 0.00 94 1007.3
20260506061729 13 97 6.4 12.9 0.00 0.20 0.00 94 1007.2
20260506060230 13 98 3.2 14.5 0.00 0.20 0.00 94 1007.3
20260506050221 13 97 4.8 16.1 0.00 0.20 0.00 94 1007.7
20260506044722 13 104 4.8 12.9 0.00 0.20 0.00 94 1007.9
20260506043223 13 98 3.2 9.7 0.00 0.20 0.00 94 1007.9
20260506041725 13 98 1.6 6.4 0.00 0.20 0.00 94 1008.0
20260506040228 13 86 1.6 11.3 0.00 0.20 0.00 94 1008.2
20260506034725 13 94 1.6 6.4 0.00 0.20 0.00 94 1008.0
20260506033226 13 94 3.2 12.9 0.00 0.20 0.00 94 1007.9
20260506031729 13 57 1.6 12.9 0.00 0.20 0.00 94 1008.0
20260506030230 13 107 6.4 11.3 0.00 0.20 0.00 94 1008.5
20260506024732 13 103 1.6 9.7 0.00 0.20 0.00 94 1008.7
20260506023218 13 84 9.7 16.1 0.00 0.20 0.00 94 1008.7
20260506021718 13 74 1.6 9.7 0.00 0.20 0.00 94 1009.1
20260506020220 13 107 0.0 6.4 0.00 0.20 0.00 94 1009.2
20260506014720 13 71 0.0 4.8 0.00 0.20 0.00 94 1009.0
20260506013220 13 68 0.0 1.6 0.00 0.20 0.00 94 1009.1
20260506011721 13 59 0.0 3.2 0.00 0.20 0.00 94 1009.1
20260506010227 13 83 1.6 9.7 0.00 0.20 0.00 94 1009.1
20260506004723 13 96 1.6 12.9 0.00 0.20 0.00 94 1009.4
20260506003224 13 78 0.0 4.8 0.00 0.20 0.00 94 1009.6
20260506001723 13 86 0.0 6.4 0.00 0.20 0.00 94 1009.9
20260506000229 13 85 1.6 6.4 0.00 0.20 0.00 94 1009.8
20260505234729 13 93 0.0 3.2 0.00 0.20 0.00 94 1010.1
20260505233230 13 93 0.0 3.2 0.00 0.20 0.00 94 1010.1
20260505231716 13 93 0.0 1.6 0.00 0.20 0.00 94 1010.1
20260505230217 13 93 0.0 3.2 0.00 0.20 0.00 94 1010.3